Flag for U.S.A. Weather past 2 weeks in Laredo, Texas, U.S.A.

Now
100 °F

Scattered clouds.


Feels Like: 103 °F
Forecast: 79 / 101 °F
Wind: 13 mph from Southeast

Location: Laredo International Airport

Current Time: Sep 4, 2015 at 6:31:24 PM

Latest Report: Sep 4, 2015 at 5:56 PM


Visibility: 10 mi

Pressure: 29.77 "Hg

Humidity: 32%

Dew point: 65 °F

Location of LaredoLocation

Historic Weather in Laredo — Graph

°F

Laredo temperature yesterday

Maximum temperature yesterday: 98 °F (at 4:56 PM)
Minimum temperature yesterday: 76 °F (at 6:56 AM)
Average temperature yesterday: 88 °F

Past Weeks' High & Low Weather Summary

 TemperatureHumidityPressure
High104 °F (Aug 23, 3:56 PM)97% (Sep 1, 4:56 AM)30.09 "Hg (Sep 1, 4:56 AM)
Low71 °F (Aug 28, 6:56 AM)19% (Aug 29, 5:56 PM)29.75 "Hg (Sep 3, 6:56 PM)
Average87 °F58%29.93 "Hg
* Reported Aug 20 4:56 PM — Sep 4 4:56 PM, Laredo, Weather by CustomWeather, © 2015

Note: Actual official high and low records may vary slightly from our data, if they occured in-between our weather recording intervals... More about our weather records

Advertising

Laredo weather history for previous 24 hours

 ConditionsComfort  
Time TempWeatherWind HumidityBarometerVisibility
4:56 PM
Fri, Sep 4
101 °FScattered clouds.13 mph31%29.78 "Hg10 mi
3:56 PM100 °FBroken clouds.12 mph33%29.80 "Hg10 mi
2:56 PM100 °FBroken clouds.9 mph34%29.82 "Hg10 mi
1:56 PM97 °FBroken clouds.6 mph39%29.84 "Hg10 mi
12:56 PM96 °FBroken clouds.7 mph43%29.86 "Hg10 mi
11:56 AM92 °FScattered clouds.8 mph52%29.88 "Hg10 mi
10:56 AM89 °FPassing clouds.10 mph59%29.89 "Hg10 mi
9:56 AM85 °FScattered clouds.12 mph70%29.88 "Hg10 mi
8:56 AM81 °FOvercast.12 mph82%29.87 "Hg10 mi
7:56 AM80 °FOvercast.9 mph84%29.86 "Hg10 mi
6:56 AM80 °FPassing clouds.10 mph84%29.84 "Hg10 mi
5:56 AM79 °FPassing clouds.8 mph84%29.85 "Hg10 mi
4:56 AM80 °FPartly cloudy.10 mph82%29.84 "Hg10 mi
3:56 AM80 °FPartly cloudy.13 mph82%29.83 "Hg10 mi
2:56 AM81 °FOvercast.14 mph79%29.85 "Hg10 mi
1:56 AM82 °FPartly cloudy.12 mph77%29.85 "Hg10 mi
12:56 AM83 °FPartly cloudy.12 mph74%29.85 "Hg10 mi
11:56 PM
Thu, Sep 3
84 °FPassing clouds.16 mph72%29.85 "Hg10 mi
10:56 PM86 °FPartly cloudy.10 mph67%29.83 "Hg10 mi
9:56 PM88 °FMostly cloudy.17 mph61%29.81 "Hg10 mi
8:56 PM90 °FPartly cloudy.18 mph52%29.78 "Hg10 mi
7:56 PM95 °FBroken clouds.7 mph33%29.75 "Hg10 mi
6:56 PM98 °FScattered clouds.10 mph32%29.75 "Hg10 mi
Weather by CustomWeather, © 2015

See weather overviewHow to use our weather pages